[[{"header":{"parameterUnit":"m.s-1","parameterCategory":1,"la1":30.2991,"la2":30.254,"lo1":-89.0895,"lo2":-89.0444,"dy":0.0017,"dx":0.0017,"nx":28,"ny":28,"refTime":"2024-03-24T09:00:00:Z","depth":0,"parameterNumber":2,"parameterNumberName":"U-component_of_WINDS"},"data":[0,0,0,0,0,0,0,0,0,0,0,0,0,0,0,0,0,0,0,0,0,0,0,0,0,0,0,0,0,0,0,0,0,0,0,0,0,0,0,0,0,0,0,0,0,0,0,0,0,0,0,0,0,0,0,0,0,0,-6.8481,-6.8484,0,-6.8763,-6.8766,-6.8769,-6.8871,-6.887,-6.8869,-6.8868,-6.9156,-6.9164,-6.9173,0,0,0,0,0,0,0,0,0,0,0,0,0,-6.8032,-6.8039,-6.8481,-6.8484,-6.8488,-6.8762,-6.8766,-6.877,-6.8871,-6.887,-6.8868,-6.8867,-6.9153,-6.9163,-6.9174,0,0,0,0,0,0,0,0,0,0,0,0,0,-6.8261,-6.8042,-6.848,-6.8571,-6.8582,-6.8762,-6.8766,-6.8771,-6.8871,-6.887,-6.8868,-6.8867,-6.915,-6.9162,-6.9175,-6.9284,0,0,-6.9214,-6.922,0,0,0,0,0,0,0,0,-6.8248,-6.8278,-6.8554,-6.8565,-6.8578,-6.878,-6.8714,-6.8943,-6.8871,-6.8761,-6.8868,-6.8866,-6.9032,-6.9055,-6.9111,-6.9298,-6.931,-6.9216,-6.9223,-6.9229,-6.9233,0,0,0,0,0,0,0,-6.8232,-6.8266,-6.8593,-6.8558,-6.8573,-6.8599,-6.863,-6.8758,-6.8902,-6.8771,-6.8779,-6.8811,-6.9038,-6.9098,-6.9118,-6.9315,-6.9215,-6.9227,-6.9235,-6.924,-6.9608,-6.9609,0,0,0,0,0,0,-6.8201,-6.8252,-6.8584,-6.8601,-6.8406,-6.8608,-6.8643,-6.8717,-6.8901,-6.8927,-6.8812,-6.8815,-6.9077,-6.9103,-6.9129,-6.9269,-6.9229,-6.9241,-6.9248,-6.9606,-6.9608,-6.961,0,0,0,0,0,0,-6.8191,-6.8229,-6.8572,-6.8429,-6.8475,-6.8617,-6.87,-6.8723,-6.8783,-6.8932,-6.8958,-6.8846,-6.9077,-6.9111,-6.9245,-6.9281,-6.9247,-6.9258,-6.9603,-6.9606,-6.9609,-6.955,0,0,0,0,0,0,-6.8177,-6.8225,-6.8268,-6.8429,-6.8482,-6.8683,-6.8702,-6.873,-6.8805,-6.8811,-6.8971,-6.8996,-6.9078,-6.9226,-6.9258,-6.9298,-6.9269,-6.9601,-6.9605,-6.9608,-6.955,-6.9551,-6.9552,0,0,0,0,0,-6.8161,-6.8239,-6.8269,-6.8309,-6.8538,-6.8685,-6.8715,-6.8808,-6.8807,-6.8851,-6.8947,-6.8991,-6.9272,-6.9238,-6.9276,-6.932,-6.9599,-6.9603,-6.9608,-6.9549,-6.9551,-6.9552,0,0,0,0,0,0,-6.8078,-6.8262,-6.8297,-6.843,-6.8541,-6.8702,-6.876,-6.8807,-6.892,-6.8921,-6.9032,-6.9067,-6.9193,-6.9271,-6.923,-6.9437,-6.9438,-6.945,-6.9381,-6.9384,-6.9385,-6.9362,-6.9279,0,0,0,0,0,-6.8075,-6.8179,-6.8335,-6.8437,-6.8491,-6.8616,-6.8684,-6.8746,-6.8865,-6.8913,-6.9019,-6.9133,-6.9248,-6.932,-6.9434,-6.9563,-6.9599,-6.9612,-6.9613,-6.9613,-6.9622,-6.9696,-6.9704,-6.9625,-6.9625,-6.9625,0,0,-6.807,-6.8183,-6.8242,-6.8423,-6.8517,-6.8622,-6.8655,-6.8765,-6.8844,-6.893,-6.9063,-6.9145,-6.928,-6.9412,-6.9476,-6.9481,-6.9652,-6.9619,-6.9618,-6.9627,-6.9702,-6.9709,-6.9716,-6.9628,-6.9628,-6.9627,0,0,-6.8114,-6.8211,-6.8307,-6.84,-6.8542,-6.8625,-6.8647,-6.8802,-6.886,-6.8996,-6.9063,-6.916,-6.9354,-6.9448,-6.9521,-6.9604,-6.9648,-6.9638,-6.9643,-6.9715,-6.9721,-6.9727,-6.9756,-6.9765,-6.9647,-6.9647,-6.9647,0,-6.8089,-6.8251,-6.835,-6.8457,-6.8535,-6.8619,-6.8717,-6.8803,-6.8974,-6.9026,-6.903,-6.9277,-6.9374,-6.9529,-6.955,-6.9607,-6.9637,-6.9619,-6.9712,-6.9719,-6.9726,-6.9755,-6.9766,-6.9644,-6.9645,-6.9645,-6.9645,0,-6.8214,-6.8325,-6.8386,-6.8549,-6.8634,-6.8736,-6.8852,-6.8926,-6.8982,-6.9065,-6.9203,-6.9323,-6.9463,-6.9505,-6.956,-6.967,-6.9668,-6.969,-6.9694,-6.973,-6.9759,-6.9771,-6.9641,-6.9642,-6.9643,-6.9643,0,0,-6.821,-6.8429,-6.8449,-6.8525,-6.8689,-6.8777,-6.8884,-6.9021,-6.9082,-6.9199,-6.9291,-6.9455,-6.9477,-6.956,-6.9628,-6.9691,-6.9749,-6.9706,-6.9711,-6.9709,-6.9876,-6.9857,-6.9868,-6.978,-6.9783,-6.9785,-6.9865,0,-6.8275,-6.8468,-6.8562,-6.8715,-6.8819,-6.8902,-6.8995,-6.9105,-6.9187,-6.9287,-6.9378,-6.9492,-6.9513,-6.9564,-6.963,-6.9727,-6.9783,-6.9723,-6.9867,-6.9871,-6.9828,-6.9884,-6.9863,-6.9932,-6.9877,-6.9879,-6.988,0,-6.8375,-6.8491,-6.8654,-6.8807,-6.8854,-6.8936,-6.907,-6.9165,-6.9293,-6.9348,-6.9442,-6.9508,-6.9624,-6.9621,-6.9784,-6.974,-6.9806,-6.9862,-6.9868,-6.9883,-6.9876,-6.9899,-6.9957,-6.9966,-6.9899,-6.9898,-6.9896,0,-6.8355,-6.8552,-6.8676,-6.8738,-6.8919,-6.8975,-6.9053,-6.918,-6.9257,-6.9375,-6.9426,-6.9555,-6.9626,-6.9725,-6.9825,-6.9813,-6.9977,-6.9983,-7.0026,-7.0023,-7.0054,-7.0051,-7.0122,-7.0099,-7.0099,-7.0098,-7.0098,0,-6.8416,-6.8512,-6.8669,-6.8744,-6.8855,-6.8964,-6.9071,-6.9155,-6.9268,-6.9362,-6.9442,-6.9528,-6.9656,-6.9759,-6.9838,-6.996,-6.9992,-7.0039,-7.0058,-7.0031,-7.0025,-7.0073,-7.007,-7.0101,-7.0101,-7.01,-7.01,0,-6.8411,-6.852,-6.866,-6.8821,-6.8864,-6.8938,-6.9076,-6.9153,-6.924,-6.9358,-6.9392,-6.9527,-6.9653,-6.9762,-6.9928,-6.9982,-7.0107,-7.0132,-7.0063,-7.0073,-7.011,-7.0104,-7.0214,-7.0233,-7.0197,-7.0198,-7.0198,0,-6.8442,-6.8518,-6.8688,-6.8756,-6.8833,-6.8943,-6.9022,-6.9133,-6.9212,-6.9365,-6.9424,-6.9555,-6.9666,-6.9863,-6.9977,-7.0104,-7.0132,-7.0162,-7.0151,-7.0122,-7.0131,-7.0125,-7.0133,-7.016,-7.016,-7.016,-7.016,0,-6.8485,-6.8536,-6.8647,-6.8777,-6.8869,-6.8978,-6.9088,-6.914,-6.9271,-6.9356,-6.9486,-6.9572,-6.9742,-6.9872,-7.0013,-7.0094,-7.0149,-7.0163,-7.018,-7.0151,-7.0108,-7.0131,-7.0061,-7.0159,-7.0159,-7.0159,-7.0159,-7.0159,-6.8499,-6.8571,-6.8701,-6.8823,-6.8918,-6.9019,-6.91,-6.9197,-6.9306,-6.9453,-6.9513,-6.9644,-6.9773,-6.9968,-7.005,-7.0155,-7.0164,-7.0188,-7.0194,-7.0198,-7.0193,-7.0092,-7.0181,-7.0182,-7.0182,-7.0182,-7.0182,0,-6.8546,-6.8634,-6.8745,-6.8897,-6.8993,-6.9037,-6.9162,-6.9239,-6.9354,-6.947,-6.9577,-6.9727,-6.9854,-6.9978,-7.0112,-7.0172,-7.0201,-7.0204,-7.0199,-7.0217,-7.0178,-7.0149,-7.0178,-7.0178,-7.0178,-7.0178,-7.0178,-7.0178,-6.8581,-6.8705,-6.8771,-6.8943,-6.9032,-6.9161,-6.9229,-6.9324,-6.9416,-6.9579,-6.9685,-6.9766,-6.9885,-7.0029,-7.0147,-7.0181,-7.0226,-7.0221,-7.0261,-7.0221,-7.022,-7.0219,-7.0193,-7.023,-7.0231,-7.0292,-7.0293,-7.0293]},{"header":{"parameterUnit":"m.s-1","parameterCategory":1,"la1":30.2991,"la2":30.254,"lo1":-89.0895,"lo2":-89.0444,"dy":0.0017,"dx":0.0017,"nx":28,"ny":28,"refTime":"2024-03-24T09:00:00:Z","depth":0,"parameterNumber":3,"parameterNumberName":"V-component_of_WINDS"},"data":[0,0,0,0,0,0,0,0,0,0,0,0,0,0,0,0,0,0,0,0,0,0,0,0,0,0,0,0,0,0,0,0,0,0,0,0,0,0,0,0,0,0,0,0,0,0,0,0,0,0,0,0,0,0,0,0,0,0,7.592,7.5921,0,7.6017,7.6018,7.6019,7.5992,7.599,7.5988,7.5986,7.6082,7.6086,7.609,0,0,0,0,0,0,0,0,0,0,0,0,0,7.5711,7.5715,7.592,7.5922,7.5923,7.6017,7.6018,7.602,7.5992,7.599,7.5988,7.5985,7.608,7.6086,7.6091,0,0,0,0,0,0,0,0,0,0,0,0,0,7.5804,7.5716,7.592,7.5921,7.5922,7.6017,7.6018,7.602,7.5993,7.599,7.5987,7.5984,7.6079,7.6085,7.6091,7.6191,0,0,7.6111,7.6114,0,0,0,0,0,0,0,0,7.5799,7.5812,7.5919,7.5921,7.5922,7.599,7.5979,7.6077,7.5994,7.5966,7.5986,7.5983,7.6053,7.6062,7.6086,7.6195,7.6199,7.6112,7.6116,7.6119,7.6121,0,0,0,0,0,0,0,7.5792,7.5807,7.5958,7.5921,7.5923,7.5916,7.5926,7.5998,7.6025,7.5968,7.5966,7.5978,7.6053,7.608,7.6088,7.6201,7.6112,7.6118,7.6122,7.6124,7.64,7.6403,0,0,0,0,0,0,7.5785,7.5802,7.5955,7.5961,7.5852,7.5922,7.5933,7.5971,7.6024,7.6029,7.5981,7.5977,7.607,7.6081,7.6091,7.6214,7.6119,7.6125,7.6129,7.6396,7.64,7.6404,0,0,0,0,0,0,7.5781,7.5799,7.5951,7.5882,7.59,7.5929,7.5971,7.5974,7.6001,7.6034,7.6038,7.6003,7.6068,7.6082,7.6167,7.6217,7.6128,7.6134,7.6392,7.6398,7.6402,7.6458,0,0,0,0,0,0,7.5775,7.5798,7.5836,7.5883,7.5904,7.6026,7.5974,7.5978,7.6013,7.6008,7.6056,7.6061,7.6067,7.6158,7.6174,7.6224,7.6139,7.6388,7.6395,7.6401,7.6452,7.6464,7.6475,0,0,0,0,0,7.5768,7.5846,7.5838,7.5856,7.5953,7.6029,7.6042,7.6048,7.6017,7.6056,7.6077,7.6059,7.6209,7.6167,7.6185,7.6238,7.6385,7.6393,7.64,7.6447,7.6462,7.6475,0,0,0,0,0,0,7.5802,7.5852,7.5843,7.594,7.5981,7.6024,7.6073,7.6064,7.6113,7.6107,7.6112,7.6123,7.6211,7.6232,7.6185,7.6338,7.6292,7.6304,7.6321,7.6336,7.6347,7.6341,7.6144,0,0,0,0,0,7.5822,7.588,7.592,7.6001,7.6022,7.6045,7.6078,7.608,7.6122,7.6139,7.6167,7.6208,7.6264,7.6301,7.6354,7.6455,7.6466,7.65,7.6512,7.6521,7.6531,7.6589,7.6606,7.6429,7.6429,7.6429,0,0,7.5861,7.5896,7.5932,7.6009,7.6041,7.6102,7.6059,7.6124,7.617,7.6149,7.6232,7.6254,7.63,7.6394,7.6437,7.6414,7.6583,7.6531,7.6538,7.6543,7.6599,7.6615,7.663,7.6434,7.6433,7.6433,0,0,7.5965,7.5996,7.6069,7.6103,7.6153,7.6167,7.6185,7.6231,7.6246,7.633,7.6316,7.6369,7.6466,7.65,7.653,7.6651,7.6637,7.6668,7.6729,7.6785,7.6799,7.6811,7.6857,7.6873,7.6678,7.6678,7.6678,0,7.6008,7.61,7.6107,7.6175,7.6211,7.6196,7.627,7.6302,7.6366,7.6391,7.6365,7.6489,7.6518,7.6622,7.6652,7.6676,7.6697,7.6663,7.6796,7.6809,7.6821,7.6864,7.6881,7.6682,7.6681,7.6681,7.6681,0,7.6151,7.6216,7.6268,7.6334,7.6374,7.6445,7.6463,7.6504,7.6503,7.652,7.6607,7.6643,7.6705,7.6729,7.6728,7.6834,7.6819,7.6795,7.6749,7.6841,7.6882,7.6899,7.6687,7.6686,7.6684,7.6684,0,0,7.6279,7.635,7.6369,7.64,7.6455,7.6505,7.6576,7.6638,7.6674,7.6719,7.678,7.6863,7.6843,7.6877,7.6879,7.6928,7.7025,7.6899,7.69,7.6923,7.7147,7.7166,7.7185,7.7016,7.7019,7.7022,7.7144,0,7.639,7.6516,7.6526,7.6639,7.67,7.6688,7.675,7.6791,7.681,7.6864,7.6884,7.6944,7.6911,7.6932,7.698,7.7003,7.7071,7.6994,7.7073,7.7076,7.7064,7.7206,7.7226,7.734,7.716,7.7162,7.7164,0,7.6536,7.6588,7.6709,7.6759,7.6785,7.684,7.69,7.6952,7.6998,7.7008,7.7049,7.7045,7.7118,7.7069,7.7171,7.7119,7.7152,7.7169,7.7173,7.7182,7.7127,7.7221,7.7376,7.7394,7.7189,7.7187,7.7185,0,7.662,7.6721,7.6807,7.6833,7.6893,7.6933,7.6959,7.7003,7.7041,7.7093,7.7118,7.7177,7.7209,7.7255,7.7268,7.7231,7.7371,7.7322,7.7382,7.7382,7.7413,7.7411,7.7578,7.7431,7.7431,7.7431,7.743,0,7.6744,7.6819,7.6846,7.6899,7.6984,7.6994,7.7077,7.7101,7.714,7.7198,7.719,7.7244,7.7257,7.7314,7.7324,7.7409,7.7423,7.7434,7.7436,7.7436,7.7435,7.7458,7.7452,7.7435,7.7434,7.7433,7.7432,0,7.6853,7.6874,7.6968,7.7018,7.7032,7.7092,7.7135,7.7186,7.7204,7.7278,7.7296,7.7325,7.7391,7.7409,7.7487,7.7495,7.7595,7.7588,7.758,7.7581,7.7641,7.7636,7.783,7.7857,7.7691,7.7692,7.7693,0,7.6932,7.699,7.7047,7.7086,7.7115,7.7178,7.7217,7.723,7.7272,7.7331,7.7376,7.7442,7.7496,7.7603,7.7631,7.7692,7.7688,7.7752,7.7697,7.7696,7.7692,7.769,7.7697,7.7763,7.7765,7.7766,7.7767,0,7.7071,7.7079,7.7137,7.72,7.7249,7.7298,7.7345,7.7378,7.7397,7.7444,7.7514,7.7556,7.7639,7.7705,7.7768,7.7794,7.7785,7.7784,7.7802,7.7803,7.7797,7.7804,7.7611,7.778,7.7779,7.7778,7.7777,7.7777,7.7169,7.7221,7.727,7.7336,7.7374,7.7419,7.7471,7.7497,7.7556,7.7625,7.7629,7.7705,7.7752,7.7835,7.7866,7.7925,7.7906,7.7931,7.7938,7.7944,7.7951,7.7787,7.7936,7.7936,7.7936,7.7935,7.7935,0,7.7309,7.7341,7.7402,7.747,7.7522,7.751,7.7563,7.7607,7.7675,7.772,7.7774,7.7856,7.7921,7.7954,7.8019,7.8061,7.8058,7.8078,7.8076,7.8083,7.7963,7.7943,7.8079,7.8079,7.8079,7.8079,7.8079,7.8079,7.7389,7.7478,7.7492,7.76,7.7631,7.7707,7.7738,7.7781,7.7817,7.7909,7.7964,7.7986,7.8027,7.8096,7.8155,7.8163,7.8189,7.8211,7.8217,7.8105,7.809,7.8077,7.8058,7.8216,7.8216,7.8332,7.8333,7.8334]}]]